Regional Weather Roundup
Issued by NWS

Home | Current Version | Previous Version | Text Only | Print | Product List | Glossary Off
Versions: 1 2 3 4 5 6 7 8 9 10 11 12 13 14 15 16 17 18 19 20 21 22 23 24 25 26 27

000
ASUS45 KBOI 241410
RWRID

IDAHO REGIONAL WEATHER ROUNDUP
NATIONAL WEATHER SERVICE BOISE ID
800 AM MDT WED AUG 24 2016

NOTE: "FAIR" INDICATES FEW OR NO CLOUDS BELOW 12000 FEET
WITH NO SIGNIFICANT WEATHER AND/OR OBSTRUCTIONS TO VISIBILITY

IDZ012-014-241500-
SOUTHWEST IDAHO


CITY           SKY/WX    TMP DP  RH WIND       PRES   REMARKS
BOISE          CLEAR     55  39  54 CALM      30.16R
CALDWELL       CLEAR     56  40  55 W7        30.16R
MOUNTAIN HOME  CLEAR     58  38  46 W8        30.14R
$$

IDZ016-017-241500-
SOUTHCENTRAL IDAHO


CITY           SKY/WX    TMP DP  RH WIND       PRES   REMARKS
BURLEY         SUNNY     47  35  63 S5        30.17R
JEROME         SUNNY     51  32  48 S3        30.18R
TWIN FALLS     SUNNY     56  29  35 SW13      30.18R
$$

IDZ019>023-241500-
SOUTHEAST IDAHO


CITY           SKY/WX    TMP DP  RH WIND       PRES   REMARKS
IDAHO FALLS    MOSUNNY   42  31  64 N9        30.20R SMOKE
POCATELLO      SUNNY     52  26  36 SW12      30.18R
REXBURG        SUNNY     41  28  60 NE6       30.21R
$$

IDZ006-010-011-018-031-032-241500-
CENTRAL IDAHO MOUNTAINS


CITY           SKY/WX    TMP DP  RH WIND       PRES   REMARKS
MCCALL         CLEAR     46  35  65 CALM      30.24R
HAILEY         SUNNY     48  28  46 NW9       30.23R
STANLEY          N/A     32  23  69 CALM      30.31S
SALMON         SUNNY     43  34  70 CALM      30.26S
CHALLIS        SUNNY     47  29  49 CALM      30.25R
$$

IDZ002-004-006-007-026-241500-
NORTHERN IDAHO


CITY           SKY/WX    TMP DP  RH WIND       PRES   REMARKS
LEWISTON       CLEAR     58  42  55 CALM      30.19R
LOWELL           N/A     49  43  80 N3        30.27R
COEUR D`ALENE  CLEAR     55  46  71 NE12      30.22R
MULLAN PASS    SUNNY     49  37  63 E6        30.33R
$$




USA.gov is the U.S. government's official web portal to all federal, state and local government web resources and services.